Weather History for Evansville, IN

Change the Weather History Date:

Saturday, November 3, 2012

  Actual Average Record
Temperature  
Mean Temperature 47 °F 52 °F  
Max Temperature 57 °F 63 °F 81 °F (1987)
Min Temperature 37 °F 41 °F 13 °F (1951)
Degree Days  
Heating Degree Days 18 13  
Month to date heating degree days 55 39  
Since 1 July heating degree days 398 342  
Cooling Degree Days 0 0  
Month to date cooling degree days 0 0  
Year to date cooling degree days 1843 1395  
Moisture  
Dew Point 35 °F    
Average Humidity 66    
Maximum Humidity 85    
Minimum Humidity 47    
Precipitation  
Precipitation 0.02 in 0.13 in 1.79 in (1923)
Month to date precipitation 0.02 0.39  
Year to date precipitation 28.49 37.61  
Snow  
Snow 0.00 in 0.00 in 0.00 in (2002)
Month to date snowfall 0.0 0.0  
Since 1 July snowfall 0.0 0.2  
Since 1 September snowfall 0.0 0.2  
Snow Depth 0.00 in    
Sea Level Pressure  
Sea Level Pressure 30.09 in    
Wind  
Wind Speed 7 mph (NE)    
Max Wind Speed 16 mph    
Max Gust Speed 22 mph    
Visibility 10 miles    
Events Rain    
T = Trace of Precipitation, MM = Missing Value Source: NWS Daily Summary

Daily Weather History Graph

Daily Weather History Graph

Search for Another Location

Airport:

Trip Planner

Search our weather history database for the weather conditions in past years. The results will help you decide how hot, cold, wet, or windy it might be!

Date:

Astronomy

Nov. 03, 2012 Rise Set
Actual Time 7:18 AM CDT 5:48 PM CDT
Civil Twilight 6:51 AM CDT 6:15 PM CDT
Nautical Twilight 6:19 AM CDT 6:46 PM CDT
Astronomical Twilight 5:49 AM CDT 7:17 PM CDT
Moon 9:30 PM CDT (11/3) 11:20 AM CDT (11/3)
Length of Visible Light 11h 24m
Length of Day
10h 29m
Waning Gibbous, 80% of the Moon is Illuminated
Nov 3
Waning Gibbous
Nov 6
Last Quarter
Nov 13
New
Nov 20
First Quarter
Nov 28
Full

Hourly Weather History & Observations

Time (CDT) Temp. Windchill Dew Point Humidity Pressure Visibility Wind Dir Wind Speed Gust Speed Precip Events Conditions
12:54 AM 41.0 °F 37.1 °F 35.1 °F 79% 30.10 in 10.0 mi NE 5.8 mph - N/A   Clear
1:54 AM 42.1 °F - 33.1 °F 70% 30.11 in 10.0 mi Calm Calm - N/A   Clear
2:54 AM 39.0 °F 35.7 °F 33.1 °F 79% 30.09 in 10.0 mi NE 4.6 mph - N/A   Clear
3:54 AM 41.0 °F - 32.0 °F 70% 30.09 in 10.0 mi Calm Calm - N/A   Clear
4:54 AM 41.0 °F - 32.0 °F 70% 30.08 in 10.0 mi Calm Calm - N/A   Mostly Cloudy
5:54 AM 43.0 °F 39.5 °F 33.1 °F 68% 30.10 in 10.0 mi ENE 5.8 mph - N/A   Overcast
6:54 AM 44.1 °F 40.8 °F 32.0 °F 63% 30.11 in 10.0 mi East 5.8 mph - N/A   Overcast
7:54 AM 43.0 °F 39.5 °F 34.0 °F 71% 30.12 in 10.0 mi East 5.8 mph - 0.01 in   Overcast
8:54 AM 43.0 °F 39.5 °F 34.0 °F 71% 30.12 in 10.0 mi East 5.8 mph - 0.01 in Rain Light Rain
9:54 AM 46.0 °F 42.5 °F 36.0 °F 68% 30.11 in 10.0 mi East 6.9 mph - 0.00 in   Mostly Cloudy
10:54 AM 50.0 °F - 35.1 °F 57% 30.09 in 10.0 mi East 9.2 mph 17.3 mph N/A   Overcast
11:54 AM 53.1 °F - 36.0 °F 52% 30.06 in 10.0 mi East 8.1 mph - 0.00 in   Mostly Cloudy
12:54 PM 55.0 °F - 35.1 °F 47% 30.02 in 10.0 mi East 8.1 mph - N/A   Partly Cloudy
1:54 PM 55.9 °F - 36.0 °F 47% 29.99 in 10.0 mi ENE 10.4 mph - N/A   Scattered Clouds
2:54 PM 53.1 °F - 37.9 °F 57% 30.01 in 10.0 mi North 12.7 mph - N/A   Overcast
3:54 PM 50.0 °F - 37.0 °F 61% 30.03 in 10.0 mi NE 12.7 mph 19.6 mph N/A   Overcast
4:54 PM 48.9 °F - 36.0 °F 61% 30.05 in 10.0 mi NNE 11.5 mph - N/A   Overcast
5:54 PM 48.0 °F - 35.1 °F 61% 30.05 in 10.0 mi NNE 10.4 mph - N/A   Overcast
6:54 PM 46.0 °F 41.4 °F 37.0 °F 71% 30.09 in 10.0 mi North 9.2 mph 17.3 mph N/A   Overcast
7:54 PM 45.0 °F 39.7 °F 37.0 °F 74% 30.12 in 10.0 mi NNE 10.4 mph - N/A   Overcast
8:54 PM 44.1 °F 39.0 °F 36.0 °F 73% 30.14 in 10.0 mi NNE 9.2 mph - N/A   Overcast
9:54 PM 41.0 °F 35.8 °F 35.1 °F 79% 30.14 in 10.0 mi NNE 8.1 mph - N/A   Partly Cloudy
10:54 PM 39.9 °F 36.7 °F 34.0 °F 79% 30.16 in 10.0 mi NNE 4.6 mph - N/A   Partly Cloudy
11:54 PM 39.9 °F 35.1 °F 35.1 °F 83% 30.14 in 10.0 mi North 6.9 mph - N/A   Clear